, AK

(GMT )
Denali Park

Weather History for PAIN - June, 2019

Change the Weather History Date:

Wednesday, June 5, 2019

  Actual Average Record
Temperature  
Mean Temperature 51 °F -  
Max Temperature 61 °F 62 °F 80 °F (1993)
Min Temperature 45 °F 36 °F 21 °F (2006)
Degree Days  
Heating Degree Days 14    
Growing Degree Days 1 (Base 50)    
Moisture  
Dew Point 40 °F    
Average Humidity 67    
Maximum Humidity 83    
Minimum Humidity 47    
Precipitation  
Precipitation 0.14 in - - ()
Sea Level Pressure  
Sea Level Pressure 30.06 in    
Wind  
Wind Speed 1 mph (WNW)    
Max Wind Speed 8 mph    
Max Gust Speed -    
Visibility 10 miles    
Events Rain    
Averages and records for this station are not official NWS values.
T = Trace of Precipitation, MM = Missing Value Source: NWS Daily Summary

Daily Weather History Graph

Daily Weather History Graph

Search for Another Location

Airport or City:

Astronomy

Jun. 05, 2019 Rise Set
Actual Time 3:49 AM AKDT 12:00 AM AKDT
Civil Twilight 2:26 AM AKDT Sun does not set
Nautical Twilight Sun does not set Sun does not set
Astronomical Twilight Sun does not set Sun does not set
Moon 6:13 AM AKDT (6/5) 1:27 AM AKDT (6/5)
Length of Visible Light 24h 00m
Length of Day
20h 11m
Waxing Crescent, 7% of the Moon is Illuminated
Jun 5
Waxing Crescent
Jun 9
First Quarter
Jun 17
Full
Jun 25
Last Quarter
Jul 2
New

Hourly Weather History & Observations

Time (AKDT) Temp. Dew Point Humidity Pressure Visibility Wind Dir Wind Speed Gust Speed Precip Events Conditions
12:56 AM 53.1 °F 33.1 °F 47% 30.02 in 10.0 mi Calm Calm - N/A   Overcast
1:56 AM 48.0 °F 33.1 °F 56% 30.03 in 10.0 mi Calm Calm - N/A   Clear
2:56 AM 46.9 °F 35.1 °F 63% 30.04 in 10.0 mi Calm Calm - N/A   Overcast
3:56 AM 46.0 °F 34.0 °F 63% 30.04 in 10.0 mi Calm Calm - N/A   Overcast
4:56 AM 45.0 °F 35.1 °F 68% 30.06 in 10.0 mi Calm Calm - 0.00 in   Overcast
5:56 AM 45.0 °F 34.0 °F 65% 30.07 in 10.0 mi Calm Calm - 0.00 in   Overcast
6:56 AM 45.0 °F 35.1 °F 68% 30.07 in 10.0 mi Calm Calm - N/A   Overcast
7:56 AM 46.9 °F 36.0 °F 66% 30.07 in 10.0 mi Calm Calm - N/A   Overcast
8:56 AM 46.9 °F 39.9 °F 77% 30.09 in 10.0 mi Calm Calm - 0.00 in Rain Light Rain
9:56 AM 48.0 °F 39.9 °F 74% 30.09 in 10.0 mi Calm Calm - 0.00 in Rain Light Rain
10:56 AM 53.1 °F 41.0 °F 64% 30.08 in 10.0 mi Calm Calm - 0.00 in   Scattered Clouds
11:56 AM 55.0 °F 39.9 °F 57% 30.06 in 10.0 mi Variable 3.5 mph - 0.00 in   Mostly Cloudy
12:56 PM 57.0 °F 42.1 °F 57% 30.04 in 10.0 mi Calm Calm - 0.00 in Rain Light Rain
1:56 PM 57.0 °F 39.0 °F 51% 30.05 in 10.0 mi West 8.1 mph - N/A   Partly Cloudy
2:56 PM 48.9 °F 44.1 °F 83% 30.08 in 10.0 mi Variable 3.5 mph - 0.12 in Rain Light Rain
3:56 PM 55.9 °F 46.0 °F 69% 30.06 in 10.0 mi NNW 3.5 mph - 0.00 in   Mostly Cloudy
4:56 PM 52.0 °F 46.9 °F 83% 30.08 in 10.0 mi WNW 3.5 mph - 0.01 in   Overcast
5:56 PM 48.9 °F 44.1 °F 83% 30.08 in 10.0 mi Variable 3.5 mph - 0.01 in Rain Light Rain
6:56 PM 53.1 °F 43.0 °F 69% 30.06 in 10.0 mi WSW 5.8 mph - 0.00 in   Partly Cloudy
7:56 PM 54.0 °F 42.1 °F 64% 30.05 in 10.0 mi Variable 5.8 mph - N/A   Mostly Cloudy
8:56 PM 54.0 °F 42.1 °F 64% 30.06 in 10.0 mi Calm Calm - N/A   Overcast
9:56 PM 53.1 °F 45.0 °F 74% 30.05 in 10.0 mi Calm Calm - N/A   Overcast
10:56 PM 52.0 °F 44.1 °F 74% 30.05 in 10.0 mi North 3.5 mph - N/A   Overcast
11:56 PM 50.0 °F 44.1 °F 80% 30.06 in 10.0 mi Variable 3.5 mph - N/A   Overcast